Location: Gorze? G�rny
(49.8500°N, 19.5000°E)
Time: 13:04:19
(UTC+00:00)

Cosmos 1733 Rocket - Pass Details

Date: 13 May 2021
Orbit: 603 x 628 km, 82.5° (Epoch: 22 June)

Event Time Altitude Azimuth Distance (km) Brightness Sun altitude
Rises 21:53:04 0° 341° (NNW) 2,873 8.0 -20.8°
Reaches altitude 10° 21:55:30 10° 331° (NNW) 1,962 6.7 -20.9°
Maximum altitude 21:59:15 29° 271° (W) 1,108 4.4 -21.0°
Enters shadow 22:00:27 25° 241° (WSW) 1,222 4.4 -21.0°
